Home   Weather   Port Vila   Past weeks

Flag for Vanuatu Past Weather in Port Vila, Vanuatu — Yesterday and Last 2 Weeks

Now
82 °F

Scattered clouds.


Feels Like: 86 °F
Forecast: 76 / 83 °F
Wind: 13 mph from Southeast

Location: Bauerfield Efate

Current Time: Apr 26, 2017 at 11:39:40 am

Latest Report: Apr 26, 2017 at 10:00 am


Visibility: N/A

Pressure: 29.95 "Hg

Humidity: 66%

Dew Point: 70 °F

Location of Port VilaLocation

Past Weather in Port Vila — Graph

°F

Port Vila Temperature Yesterday

Maximum temperature yesterday: 86 °F (at 10:00 am)
Minimum temperature yesterday: 70 °F (at 12:02 am)
Average temperature yesterday: 76 °F

High & Low Weather Summary for the Past Weeks

 TemperatureHumidityPressure
High90 °F (Apr 11, 11:00 am)100% (Apr 11, 6:00 pm)32.52 "Hg (Apr 11, 6:00 pm)
Low66 °F (Apr 26, 5:00 am)62% (Apr 24, 3:00 pm)29.77 "Hg (Apr 12, 2:00 pm)
Average77 °F93%29.88 "Hg
* Reported Apr 11 10:00 am — Apr 26 10:00 am, Port Vila, Weather by CustomWeather, © 2017

Note: Actual official high and low records may vary slightly from our data, if they occured in-between our weather recording intervals... More about our weather records

Advertising

Port Vila Weather History for the Previous 24 Hours

Scroll right to see more
 ConditionsComfort  
Time TempWeatherWind HumidityBarometerVisibility
10:00 am
Wed, Apr 26
82 °FScattered clouds.13 mph66%29.95 "HgN/A
9:00 am81 °FScattered clouds.14 mph70%29.95 "HgN/A
8:00 am77 °FPassing clouds.2 mph89%29.92 "HgN/A
7:00 am72 °FPassing clouds.2 mph100%29.92 "HgN/A
6:00 am66 °FPassing clouds.2 mph100%29.92 "HgN/A
5:00 am66 °FPassing clouds.3 mph100%29.89 "HgN/A
2:00 am68 °FPassing clouds.2 mph100%29.92 "HgN/A
11:00 pm
Tue, Apr 25
72 °FPassing clouds.5 mph100%29.95 "HgN/A
10:00 pm72 °FPassing clouds.2 mph100%29.95 "HgN/A
9:00 pm72 °FPassing clouds.3 mph100%29.95 "HgN/A
8:00 pm72 °FPassing clouds.3 mph100%29.95 "HgN/A
7:00 pm75 °FPassing clouds.5 mph83%29.89 "HgN/A
6:00 pm77 °FPassing clouds.3 mph83%29.89 "HgN/A
5:00 pm79 °FScattered clouds.6 mph74%29.86 "HgN/A
4:00 pm82 °FPassing clouds.12 mph66%29.83 "HgN/A
3:00 pm82 °FBroken clouds.14 mph66%29.83 "HgN/A
2:00 pm82 °FBroken clouds.13 mph70%29.83 "HgN/A
1:00 pm82 °FBroken clouds.13 mph66%29.86 "HgN/A
12:00 pm84 °FBroken clouds.12 mph70%29.89 "HgN/A
Weather by CustomWeather, © 2017

See weather overviewHow to use our weather pages